GW4857 Weather Reports


Display with metric or nautical units.
time (UTC)temp
F
wind
direction
speed
MPH
gust
MPH
rain 1hr
in
rain 24hr
in
rain mn
in
humidity
%
barometer
mb
20260906233512 91 156 1.0 5.0 0.00 0.00 0.00 51 1011.8
20260906233019 92 156 1.0 5.0 0.00 0.00 0.00 51 1011.8
20260906232514 92 145 1.0 5.0 0.00 0.00 0.00 51 1011.9
20260906232015 92 132 1.0 5.0 0.00 0.00 0.00 50 1012.0
20260906231518 92 136 2.0 6.0 0.00 0.00 0.00 50 1011.9
20260906231013 91 136 1.0 6.0 0.00 0.00 0.00 50 1012.0
20260906230515 92 146 1.0 6.0 0.00 0.00 0.00 50 1012.1
20260906230016 92 116 1.0 6.0 0.00 0.00 0.00 50 1012.1
20260906225515 93 122 1.0 6.0 0.00 0.00 0.00 49 1012.2
20260906225016 93 117 1.0 7.0 0.00 0.00 0.00 49 1012.2
20260906224527 93 207 3.0 7.0 0.00 0.00 0.00 49 1012.2
20260906224014 94 158 2.0 7.0 0.00 0.00 0.00 47 1012.1
20260906223520 94 141 3.0 6.0 0.00 0.00 0.00 47 1012.1
20260906223016 94 184 1.0 4.0 0.00 0.00 0.00 46 1012.1
20260906222511 94 177 1.0 5.0 0.00 0.00 0.00 46 1012.1
20260906222014 94 203 1.0 7.0 0.00 0.00 0.00 46 1012.2
20260906221523 94 217 2.0 7.0 0.00 0.00 0.00 47 1012.3
20260906221017 94 161 0.0 4.0 0.00 0.00 0.00 46 1012.3
20260906220518 94 161 0.0 4.0 0.00 0.00 0.00 46 1012.3
20260906220024 94 196 1.0 5.0 0.00 0.00 0.00 45 1012.4
20260906215515 94 193 1.0 5.0 0.00 0.00 0.00 46 1012.4
20260906215008 94 191 2.0 4.0 0.00 0.00 0.00 45 1012.4
20260906214510 94 189 1.0 4.0 0.00 0.00 0.00 45 1012.4
20260906214007 95 206 0.0 4.0 0.00 0.00 0.00 43 1012.5
20260906213509 95 206 1.0 4.0 0.00 0.00 0.00 46 1012.6
20260906213016 95 225 1.0 4.0 0.00 0.00 0.00 45 1012.7
20260906212509 94 209 0.0 3.0 0.00 0.00 0.00 49 1012.7
20260906212011 92 209 0.0 4.0 0.00 0.00 0.00 48 1012.8
20260906211519 92 210 1.0 4.0 0.00 0.00 0.00 47 1012.8
20260906211016 92 55 0.0 4.0 0.00 0.00 0.00 47 1012.9
20260906210512 93 55 0.0 4.0 0.00 0.00 0.00 45 1013.0
20260906210028 93 127 0.0 3.0 0.00 0.00 0.00 47 1013.1
20260906205508 93 66 1.0 3.0 0.00 0.00 0.00 47 1013.1
20260906205010 92 204 0.0 5.0 0.00 0.00 0.00 49 1013.1
20260906204531 92 203 1.0 5.0 0.00 0.00 0.00 47 1013.3
20260906204009 93 86 0.0 3.0 0.00 0.00 0.00 46 1013.3
20260906203510 93 86 0.0 5.0 0.00 0.00 0.00 49 1013.3
20260906203011 93 82 1.0 5.0 0.00 0.00 0.00 46 1013.3
20260906202519 93 106 0.0 5.0 0.00 0.00 0.00 46 1013.3
20260906202009 93 111 1.0 5.0 0.00 0.00 0.00 46 1013.5
20260906201514 94 172 1.0 5.0 0.00 0.00 0.00 46 1013.4
20260906201009 94 247 0.0 5.0 0.00 0.00 0.00 45 1013.5
20260906200514 95 232 1.0 8.0 0.00 0.00 0.00 48 1013.7
20260906200022 95 197 2.0 8.0 0.00 0.00 0.00 47 1013.7
20260906195509 93 214 2.0 5.0 0.00 0.00 0.00 48 1013.7
20260906195013 94 123 1.0 5.0 0.00 0.00 0.00 46 1013.7
20260906194526 96 208 2.0 4.0 0.00 0.00 0.00 47 1013.8
20260906194011 96 186 1.0 5.0 0.00 0.00 0.00 45 1013.9
20260906193515 96 143 1.0 5.0 0.00 0.00 0.00 48 1013.8
20260906193030 97 110 1.0 5.0 0.00 0.00 0.00 46 1013.8
20260906192510 96 184 1.0 5.0 0.00 0.00 0.00 49 1013.9
20260906192017 95 61 2.0 4.0 0.00 0.00 0.00 50 1014.1
20260906191531 95 1 1.0 4.0 0.00 0.00 0.00 48 1014.1
20260906191009 96 11 1.0 5.0 0.00 0.00 0.00 48 1014.2
20260906190512 96 1 1.0 5.0 0.00 0.00 0.00 47 1014.2
20260906190019 95 103 1.0 4.0 0.00 0.00 0.00 50 1014.2
20260906185514 94 183 1.0 4.0 0.00 0.00 0.00 49 1014.3
20260906185011 95 39 2.0 5.0 0.00 0.00 0.00 49 1014.3
20260906184526 93 115 1.0 5.0 0.00 0.00 0.00 49 1014.3
20260906184011 94 145 0.0 4.0 0.00 0.00 0.00 50 1014.3
20260906183514 94 250 1.0 3.0 0.00 0.00 0.00 48 1014.4
20260906183042 94 181 1.0 3.0 0.00 0.00 0.00 47 1014.5
20260906182514 94 180 0.0 3.0 0.00 0.00 0.00 45 1014.5
20260906182017 93 180 0.0 4.0 0.00 0.00 0.00 45 1014.6
20260906181531 92 179 0.0 6.0 0.00 0.00 0.00 50 1014.7
20260906181013 92 193 3.0 6.0 0.00 0.00 0.00 52 1014.8
20260906180519 91 146 0.0 5.0 0.00 0.00 0.00 54 1014.9
20260906180031 89 103 1.0 5.0 0.00 0.00 0.00 52 1015.0
20260906175511 89 56 1.0 5.0 0.00 0.00 0.00 54 1015.1
20260906175011 90 108 0.0 4.0 0.00 0.00 0.00 58 1015.2
20260906174523 89 114 1.0 3.0 0.00 0.00 0.00 61 1015.3
20260906174011 89 97 0.0 4.0 0.00 0.00 0.00 60 1015.5
20260906173514 89 97 0.0 4.0 0.00 0.00 0.00 61 1015.5
20260906173014 90 88 2.0 5.0 0.00 0.00 0.00 61 1015.6
20260906172515 90 217 1.0 5.0 0.00 0.00 0.00 62 1015.7
20260906172015 90 218 2.0 5.0 0.00 0.00 0.00 64 1015.8
20260906171518 88 120 1.0 4.0 0.00 0.00 0.00 66 1016.0
20260906171016 86 105 1.0 5.0 0.00 0.00 0.00 69 1016.0
20260906170516 87 109 1.0 5.0 0.00 0.00 0.00 70 1016.1
20260906170028 87 146 1.0 4.0 0.00 0.00 0.00 69 1016.1
20260906165516 85 158 0.0 5.0 0.00 0.00 0.00 72 1016.1
20260906165017 85 172 0.0 5.0 0.00 0.00 0.00 71 1016.1
20260906164519 85 193 1.0 4.0 0.00 0.00 0.00 70 1016.2
20260906164010 85 134 0.0 3.0 0.00 0.00 0.00 70 1016.2
20260906163512 85 134 0.0 3.0 0.00 0.00 0.00 69 1016.1
20260906163020 85 134 1.0 3.0 0.00 0.00 0.00 70 1016.1
20260906162514 85 136 0.0 3.0 0.00 0.00 0.00 70 1016.2
20260906162018 85 136 0.0 3.0 0.00 0.00 0.00 70 1016.2
20260906161524 85 136 0.0 0.0 0.00 0.00 0.00 70 1016.2
20260906161013 85 136 0.0 2.0 0.00 0.00 0.00 71 1016.2
20260906160516 84 136 0.0 2.0 0.00 0.00 0.00 71 1016.2
20260906160026 84 136 0.0 2.0 0.00 0.00 0.00 71 1016.2
20260906155517 84 137 0.0 0.0 0.00 0.00 0.00 71 1016.1
20260906155017 84 137 0.0 0.0 0.00 0.00 0.00 73 1016.0
20260906154526 83 137 0.0 2.0 0.00 0.00 0.00 72 1016.0
20260906154018 84 137 0.0 3.0 0.00 0.00 0.00 71 1015.9
20260906153520 84 137 0.0 3.0 0.00 0.00 0.00 71 1015.8
20260906153031 84 138 0.0 2.0 0.00 0.00 0.00 71 1015.8
20260906152512 84 134 0.0 4.0 0.00 0.00 0.00 72 1015.6
20260906152014 84 134 0.0 4.0 0.00 0.00 0.00 72 1015.6
20260906151529 84 28 0.0 0.0 0.00 0.00 0.00 72 1015.5
20260906151016 83 202 0.0 0.0 0.00 0.00 0.00 72 1015.5
20260906150516 83 202 0.0 0.0 0.00 0.00 0.00 72 1015.4
20260906150039 83 212 0.0 0.0 0.00 0.00 0.00 72 1015.4
20260906145516 82 212 0.0 0.0 0.00 0.00 0.00 72 1015.4
20260906145012 83 212 0.0 0.0 0.00 0.00 0.00 73 1015.4
20260906144531 82 212 0.0 0.0 0.00 0.00 0.00 74 1015.4
20260906144018 82 212 0.0 0.0 0.00 0.00 0.00 74 1015.3
20260906143514 82 212 0.0 0.0 0.00 0.00 0.00 75 1015.3
20260906143013 82 212 0.0 0.0 0.00 0.00 0.00 75 1015.3
20260906142506 81 212 0.0 0.0 0.00 0.00 0.00 77 1015.3
20260906142016 81 212 0.0 0.0 0.00 0.00 0.00 77 1015.2
20260906141520 81 214 0.0 0.0 0.00 0.00 0.00 78 1015.2
20260906141008 80 214 0.0 0.0 0.00 0.00 0.00 79 1015.2
20260906140513 80 214 0.0 0.0 0.00 0.00 0.00 79 1015.2
20260906140028 80 214 0.0 0.0 0.00 0.00 0.00 79 1015.2
20260906135509 80 214 0.0 0.0 0.00 0.00 0.00 80 1015.2
20260906135014 80 214 0.0 0.0 0.00 0.00 0.00 80 1015.2
20260906134540 80 214 0.0 0.0 0.00 0.00 0.00 80 1015.1
20260906134009 80 214 0.0 0.0 0.00 0.00 0.00 81 1015.1
20260906133515 80 214 0.0 0.0 0.00 0.00 0.00 81 1015.1
20260906133048 80 214 0.0 0.0 0.00 0.00 0.00 82 1015.1
20260906132510 79 214 0.0 0.0 0.00 0.00 0.00 81 1015.0
20260906132012 79 214 0.0 0.0 0.00 0.00 0.00 81 1014.8
20260906131518 79 214 0.0 0.0 0.00 0.00 0.00 80 1014.7
20260906131017 79 214 0.0 0.0 0.00 0.00 0.00 81 1014.7
20260906130514 79 214 0.0 0.0 0.00 0.00 0.00 81 1014.5
20260906130026 79 214 0.0 0.0 0.00 0.00 0.00 80 1014.5
20260906125510 79 214 0.0 0.0 0.00 0.00 0.00 81 1014.4
20260906125020 79 214 0.0 0.0 0.00 0.00 0.00 81 1014.3
20260906124530 78 214 0.0 0.0 0.00 0.00 0.00 82 1014.3
20260906124012 78 214 0.0 0.0 0.00 0.00 0.00 83 1014.2
20260906123515 77 214 0.0 0.0 0.00 0.00 0.00 83 1014.2
20260906123032 77 214 0.0 0.0 0.00 0.00 0.00 84 1014.0
20260906122513 77 214 0.0 0.0 0.00 0.00 0.00 84 1014.0
20260906122016 77 214 0.0 0.0 0.00 0.00 0.00 84 1013.9
20260906121532 76 214 0.0 0.0 0.00 0.00 0.00 84 1013.8
20260906121015 76 214 0.0 0.0 0.00 0.00 0.00 84 1013.7
20260906120510 76 214 0.0 0.0 0.00 0.00 0.00 84 1013.6
20260906120004 76 214 0.0 0.0 0.00 0.00 0.00 84 1013.5
20260906115503 76 214 0.0 0.0 0.00 0.00 0.00 84 1013.4
20260906115004 76 214 0.0 0.0 0.00 0.00 0.00 84 1013.3
20260906114508 76 214 0.0 0.0 0.00 0.00 0.00 84 1013.1
20260906114002 76 214 0.0 0.0 0.00 0.00 0.00 84 1013.3
20260906113504 76 214 0.0 0.0 0.00 0.00 0.00 84 1013.3
20260906113004 76 214 0.0 0.0 0.00 0.00 0.00 83 1013.2
20260906112504 76 214 0.0 0.0 0.00 0.00 0.00 83 1013.2
20260906112004 76 214 0.0 0.0 0.00 0.00 0.00 83 1013.1
20260906111505 76 214 0.0 0.0 0.00 0.00 0.00 83 1013.2
20260906111004 76 214 0.0 0.0 0.00 0.00 0.00 83 1013.1
20260906110506 76 214 0.0 0.0 0.00 0.00 0.00 82 1013.1
20260906110004 77 214 0.0 0.0 0.00 0.00 0.00 82 1013.0
20260906105503 77 214 0.0 0.0 0.00 0.00 0.00 81 1013.0
20260906105004 77 214 0.0 0.0 0.00 0.00 0.00 81 1013.0
20260906104506 77 214 0.0 0.0 0.00 0.00 0.00 81 1013.1
20260906104003 78 214 0.0 0.0 0.00 0.00 0.00 80 1013.0
20260906103503 78 214 0.0 0.0 0.00 0.00 0.00 80 1013.0
20260906103004 78 214 0.0 0.0 0.00 0.00 0.00 80 1012.8
20260906102503 78 214 0.0 0.0 0.00 0.00 0.00 80 1012.9
20260906102006 78 214 0.0 0.0 0.00 0.00 0.00 79 1012.9
20260906101508 78 214 0.0 0.0 0.00 0.00 0.00 79 1012.8
20260906101004 78 214 0.0 0.0 0.00 0.00 0.00 79 1012.7
20260906100503 78 214 0.0 0.0 0.00 0.00 0.00 78 1012.7
20260906100006 79 214 0.0 0.0 0.00 0.00 0.00 78 1012.7
20260906095506 79 214 0.0 0.0 0.00 0.00 0.00 78 1012.7
20260906095006 79 214 0.0 0.0 0.00 0.00 0.00 78 1012.8
20260906094508 79 214 0.0 0.0 0.00 0.00 0.00 77 1012.9
20260906094006 79 214 0.0 0.0 0.00 0.00 0.00 77 1012.7
20260906093507 79 214 0.0 0.0 0.00 0.00 0.00 77 1012.7
20260906093006 79 215 0.0 0.0 0.00 0.00 0.00 77 1012.7
20260906092508 80 217 0.0 3.0 0.00 0.00 0.00 76 1012.7
20260906092008 80 223 0.0 3.0 0.00 0.00 0.00 76 1012.7
20260906091504 80 228 0.0 2.0 0.00 0.00 0.00 76 1012.6
20260906091003 80 229 0.0 3.0 0.00 0.00 0.00 76 1012.6
20260906090508 80 229 0.0 3.0 0.00 0.00 0.00 76 1012.7
20260906090008 80 191 0.0 3.0 0.00 0.00 0.00 76 1012.7
20260906085506 80 198 0.0 4.0 0.00 0.00 0.00 76 1012.7
20260906085006 80 198 0.0 4.0 0.00 0.00 0.00 75 1012.7
20260906084510 80 210 0.0 3.0 0.00 0.00 0.00 75 1012.6
20260906084008 81 210 0.0 5.0 0.00 0.00 0.00 75 1012.7
20260906083508 81 217 1.0 5.0 0.00 0.00 0.00 75 1012.8
20260906083011 81 221 0.0 4.0 0.00 0.00 0.00 75 1012.7
20260906082508 81 193 0.0 4.0 0.00 0.00 0.00 74 1012.7
20260906082008 81 195 0.0 4.0 0.00 0.00 0.00 74 1012.7
20260906081509 81 175 0.0 1.0 0.00 0.00 0.00 74 1012.8
20260906081005 82 212 0.0 5.0 0.00 0.00 0.00 74 1012.8
20260906080509 82 204 2.0 5.0 0.00 0.00 0.00 74 1012.7
20260906080008 82 200 0.0 4.0 0.00 0.00 0.00 74 1012.8
20260906075507 82 206 0.0 4.0 0.00 0.00 0.00 74 1012.9
20260906075006 82 207 1.0 5.0 0.00 0.00 0.00 74 1012.8
20260906074508 82 209 1.0 5.0 0.00 0.00 0.00 74 1013.0
20260906074016 82 200 1.0 4.0 0.00 0.00 0.00 74 1013.1
20260906073513 82 200 0.0 5.0 0.00 0.00 0.00 74 1013.1
20260906073016 82 205 0.0 5.0 0.00 0.00 0.00 74 1013.2
20260906072508 82 205 0.0 5.0 0.00 0.00 0.00 74 1013.2
20260906072007 82 179 0.0 3.0 0.00 0.00 0.00 74 1013.4
20260906071511 82 179 0.0 3.0 0.00 0.00 0.00 74 1013.3
20260906071013 82 179 0.0 3.0 0.00 0.00 0.00 74 1013.4
20260906070507 82 165 0.0 0.0 0.00 0.00 0.00 74 1013.4
20260906070012 82 165 0.0 2.0 0.00 0.00 0.00 74 1013.6
20260906065507 82 166 0.0 4.0 0.00 0.00 0.00 74 1013.5
20260906065010 82 167 0.0 4.0 0.00 0.00 0.00 74 1013.6
20260906064508 82 138 0.0 2.0 0.00 0.00 0.00 74 1013.7
20260906064006 82 138 0.0 2.0 0.00 0.00 0.00 74 1013.7
20260906063510 82 133 0.0 2.0 0.00 0.00 0.00 74 1013.7
20260906063012 81 133 0.0 2.0 0.00 0.00 0.00 74 1013.7
20260906062507 82 132 0.0 0.0 0.00 0.00 0.00 74 1013.7
20260906062007 82 132 0.0 0.0 0.00 0.00 0.00 74 1013.6
20260906061518 82 132 0.0 0.0 0.00 0.00 0.00 74 1013.6
20260906061007 82 132 0.0 0.0 0.00 0.00 0.00 74 1013.6
20260906060513 81 132 0.0 0.0 0.00 0.00 0.00 74 1013.7
20260906060013 81 132 0.0 0.0 0.00 0.00 0.00 74 1013.8
20260906055511 81 132 0.0 0.0 0.00 0.00 0.00 74 1013.9
20260906055011 82 132 0.0 0.0 0.00 0.00 0.00 73 1014.0
20260906054515 82 132 0.0 0.0 0.00 0.00 0.00 73 1013.9
20260906054003 82 132 0.0 0.0 0.00 0.00 0.00 73 1013.7
20260906053504 82 132 0.0 0.0 0.00 0.00 0.00 73 1013.7
20260906053012 82 132 0.0 0.0 0.00 0.00 0.00 73 1013.7
20260906052504 82 132 0.0 0.0 0.00 0.00 0.00 73 1013.8
20260906052007 82 132 0.0 0.0 0.00 0.00 0.00 73 1013.8
20260906051517 82 132 0.0 3.0 0.00 0.00 0.00 72 1013.8
20260906051004 82 132 0.0 3.0 0.00 0.00 0.00 72 1013.8
20260906050503 82 132 0.0 2.0 0.00 0.00 0.00 72 1013.9
20260906050004 82 131 0.0 1.0 0.00 0.00 0.00 72 1014.1
20260906045505 82 131 0.0 2.0 0.00 0.00 0.00 72 1014.1
20260906045003 82 131 0.0 2.0 0.00 0.00 0.00 72 1014.1
20260906044503 82 129 0.0 0.0 0.00 0.00 0.00 72 1014.2
20260906044005 82 129 0.0 0.0 0.00 0.00 0.00 71 1014.0
20260906043503 82 129 0.0 0.0 0.00 0.00 0.00 71 1014.0
20260906043004 82 135 0.0 0.0 0.00 0.00 0.00 71 1014.0
20260906042505 82 110 0.0 0.0 0.00 0.00 0.00 71 1013.9
20260906042007 82 110 0.0 2.0 0.00 0.00 0.00 70 1013.9
20260906041506 82 106 0.0 3.0 0.00 0.00 0.00 70 1013.8
20260906041007 83 109 0.0 3.0 0.00 0.00 0.00 70 1013.7
20260906040515 83 103 0.0 4.0 0.00 0.00 0.00 69 1013.7
20260906040005 83 67 0.0 5.0 0.00 0.00 0.00 69 1013.8
20260906035503 83 65 0.0 5.0 0.00 0.00 0.00 68 1013.7
20260906035003 83 82 1.0 6.0 0.00 0.00 0.00 67 1013.7
20260906034509 84 122 0.0 6.0 0.00 0.00 0.00 66 1013.7
20260906034004 84 38 0.0 7.0 0.00 0.00 0.00 66 1013.9
20260906033504 84 120 1.0 7.0 0.00 0.00 0.00 65 1013.7
20260906033005 84 91 0.0 4.0 0.00 0.00 0.00 65 1013.8
20260906032503 84 75 0.0 4.0 0.00 0.00 0.00 64 1013.9
20260906032005 85 99 0.0 4.0 0.00 0.00 0.00 64 1013.8
20260906031504 85 63 1.0 6.0 0.00 0.00 0.00 63 1013.9
20260906031007 85 1 1.0 6.0 0.00 0.00 0.00 63 1013.8
20260906030508 85 68 0.0 5.0 0.00 0.00 0.00 62 1013.7
20260906030005 85 74 1.0 6.0 0.00 0.00 0.00 62 1013.6
20260906025508 85 88 0.0 6.0 0.00 0.00 0.00 61 1013.5
20260906025011 86 38 1.0 5.0 0.00 0.00 0.00 60 1013.3
20260906024505 86 27 1.0 5.0 0.00 0.00 0.00 59 1013.1
20260906024001 86 48 1.0 8.0 0.00 0.00 0.00 58 1013.1
20260906023505 86 83 2.0 8.0 0.00 0.00 0.00 57 1012.9
20260906023012 86 74 1.0 6.0 0.00 0.00 0.00 57 1012.8
20260906022503 87 77 0.0 7.0 0.00 0.00 0.00 56 1012.7
20260906022007 87 163 1.0 7.0 0.00 0.00 0.00 56 1012.7
20260906021510 87 85 2.0 7.0 0.00 0.00 0.00 56 1012.6
20260906021008 87 65 0.0 4.0 0.00 0.00 0.00 55 1012.6
20260906020507 87 6 1.0 4.0 0.00 0.00 0.00 55 1012.5
20260906020010 88 63 1.0 5.0 0.00 0.00 0.00 55 1012.4
20260906015511 88 28 1.0 6.0 0.00 0.00 0.00 55 1012.2
20260906015004 88 66 1.0 6.0 0.00 0.00 0.00 55 1012.1
20260906014508 88 2 0.0 5.0 0.00 0.00 0.00 54 1012.0
20260906014011 89 127 2.0 8.0 0.00 0.00 0.00 54 1011.9
20260906013502 89 81 2.0 8.0 0.00 0.00 0.00 53 1012.0
20260906013008 89 18 2.0 10.0 0.00 0.00 0.00 53 1011.9
20260906012502 89 111 3.0 10.0 0.00 0.00 0.00 52 1011.9
20260906012002 89 40 2.0 9.0 0.00 0.00 0.00 53 1011.7
20260906011506 90 38 1.0 5.0 0.00 0.00 0.00 53 1011.7
20260906011006 90 86 2.0 5.0 0.00 0.00 0.00 52 1011.7
20260906010503 90 40 1.0 5.0 0.00 0.00 0.00 52 1011.8
20260906010010 90 77 1.0 7.0 0.00 0.00 0.00 52 1011.8
20260906005509 91 137 1.0 8.0 0.00 0.00 0.00 52 1011.8
20260906005003 91 22 2.0 8.0 0.00 0.00 0.00 51 1011.8
20260906004513 91 1 2.0 8.0 0.00 0.00 0.00 51 1011.7
20260906004012 91 4 1.0 6.0 0.00 0.00 0.00 51 1011.7
20260906003503 92 1 2.0 7.0 0.00 0.00 0.00 50 1011.7
20260906003014 92 1 1.0 9.0 0.00 0.00 0.00 50 1011.6
20260906002515 92 26 2.0 9.0 0.00 0.00 0.00 49 1011.5
20260906002007 93 62 3.0 9.0 0.00 0.00 0.00 49 1011.6
20260906001514 93 48 2.0 5.0 0.00 0.00 0.00 48 1011.5
20260906001002 93 360 1.0 5.0 0.00 0.00 0.00 47 1011.5
20260906000504 93 2 1.0 7.0 0.00 0.00 0.00 46 1011.4
20260906000008 93 21 1.0 7.0 0.00 0.00 0.00 44 1011.5
20260905235503 93 64 0.0 1.0 0.00 0.00 0.00 43 1011.5
20260905235008 93 66 0.0 4.0 0.00 0.00 0.00 43 1011.3
20260905234512 94 65 1.0 4.0 0.00 0.00 0.00 42 1011.3
20260905234007 94 57 1.0 4.0 0.00 0.00 0.00 41 1011.4